Location: Betpouey
(42.8833°N, 0.0333°E)
Time: 22:05:35
(UTC+00:00)

USA 267 - Pass Details

Date: 01 December 2020
Orbit: 1100 x 1107 km, 123.0° (Epoch: 06 January)

Event Time Altitude Azimuth Distance (km) Brightness Sun altitude
Exits shadow 19:21:29 60° 360° (N) 1,252 3.4 -31.4°
Drops below altitude 10° 19:27:09 10° 315° (NW) 2,963 6.0 -32.4°
Sets 19:29:39 0° 313° (NW) 3,924 6.8 -32.9°
